This demonstration page uses our WeatherBlox Daily Observations layout. Learn more.

Left ArrowRight Arrow

38.80484, -77.04692

Hourly Observations for April 28, 2016

Temp ( °F °C ) Dew Point ( °F °C ) Humidity (%) Winds ( mph kmh ) Pressure ( in mb ) Visibility ( mi km ) Precip ( " mm )
12:52 am 00:52 Cloudy 54 12.2 49 9.4 83 83 WSW 7 11 29.93 1014 10 16 0.00 0.00
1:52 am 01:52 Cloudy 54 12.2 50 10 87 87 Calm 29.92 1013 10 16 0.00 0.00
2:52 am 02:52 Cloudy 54 12.2 49 9.4 83 83 WNW 6 9 29.94 1014 10 16 0.00 0.00
3:52 am 03:52 Cloudy 55 12.8 50 10 83 83 SE 3 6 29.94 1014 10 16 0.00 0.00
4:52 am 04:52 Cloudy 54 12.2 50 10 87 87 E 7 11 29.95 1014 9 14 0.00 0.00
5:45 am 05:45 Cloudy 54 12.2 50 10 87 87 NE 7 11 29.97 1015 8 13 0.00 0.00
5:52 am 05:52 Cloudy 54 12.2 50 10 87 87 ENE 7 11 29.96 1015 8 13 0.00 0.00
6:02 am 06:02 Cloudy with Light Rain 54 12 50 10 88 88 ENE 7 11 29.97 1015 8 13 0.00 0.00
6:15 am 06:15 Cloudy with Mist and Fog 54 12.2 50 10 87 87 ENE 9 15 29.97 1015 5 8 0.00 0.03
6:52 am 06:52 Cloudy with Mist and Fog 54 12.2 51 10.6 90 90 ENE 9 15 29.96 1015 6 10 0.00 0.03
6:56 am 06:56 Cloudy with Mist and Fog 55 13 50 10 82 82 ENE 8 13 29.97 1015 5 8 0.00 0.00
7:52 am 07:52 Cloudy with Mist and Fog 55 12.8 51 10.6 87 87 NE 12 19 29.97 1015 6 10 0.00 0.00
8:46 am 08:46 Cloudy with Light Rain 55 13 50 10 82 82 ENE 9 15 30.00 1016 7 11 0.00 0.00
8:52 am 08:52 Cloudy with Light Rain 55 12.8 50 10 83 83 ENE 10 17 29.99 1016 7 11 0.00 0.03
9:15 am 09:15 Cloudy with Light Rain 55 12.8 51 10.6 87 87 ENE 9 15 30.00 1016 4 6 0.01 0.25
9:52 am 09:52 Cloudy with Rain 54 12.2 51 10.6 90 90 ENE 9 15 29.99 1016 4 6 0.12 3.05
10:29 am 10:29 Cloudy with Light Rain 54 12.2 51 10.6 90 90 ENE 8 13 30.00 1016 4 6 0.08 2.03
10:52 am 10:52 Cloudy with Rain 54 12.2 51 10.6 90 90 E 8 13 30.01 1016 3 5 0.09 2.29
11:04 am 11:04 Cloudy with Rain 54 12 50 10 88 88 Calm 30.03 1017 3 4 0.00 0.00
11:14 am 11:14 Cloudy with Heavy Rain 54 12 50 10 88 88 NE 7 11 30.03 1017 2 3 0.00 0.00
11:18 am 11:18 Cloudy with Rain 54 12 50 10 88 88 ENE 12 19 30.00 1016 2 3 0.00 0.00
11:26 am 11:26 Cloudy with Rain 54 12.2 51 10.6 90 90 E 7 11 30.00 1016 3 4 0.13 3.30
11:33 am 11:33 Cloudy with Light Rain 54 12.2 51 10.6 90 90 E 9 15 30.00 1016 3 4 0.14 3.56
11:52 am 11:52 Cloudy with Light Rain 54 12.2 51 10.6 90 90 E 10 17 29.99 1016 3 5 0.18 4.57
12:52 pm 12:52 Cloudy with Mist and Fog 54 12.2 51 10.6 90 90 E 6 9 30.00 1016 5 8 0.02 0.51
1:52 pm 13:52 Cloudy 54 12.2 51 10.6 90 90 ENE 5 7 30.00 1016 7 11 0.00 0.00
2:52 pm 14:52 Cloudy 55 12.8 51 10.6 87 87 E 8 13 29.99 1016 7 11 0.00 0.00
3:01 pm 15:01 Cloudy with Drizzle 55 12.8 52 11.1 90 90 ENE 6 9 29.97 1015 3 5 0.00 0.03
3:09 pm 15:09 Cloudy with Light Rain 55 12.8 52 11.1 90 90 E 8 13 29.97 1015 3 4 0.00 0.03
3:23 pm 15:23 Cloudy with Mist and Fog 54 12.2 52 11.1 93 93 ENE 8 13 29.97 1015 2 3 0.00 0.03
3:30 pm 15:30 Cloudy with Drizzle 54 12 52 11 94 94 E 9 15 29.97 1015 2 2 0.00 0.00
3:34 pm 15:34 Cloudy with Drizzle 54 12 52 11 94 94 ENE 9 15 29.97 1015 2 3 0.00 0.00
3:39 pm 15:39 Cloudy with Drizzle 55 12.8 52 11.1 90 90 ENE 7 11 29.97 1015 3 4 0.00 0.03
3:42 pm 15:42 Cloudy with Light Rain 55 13 54 12 94 94 ENE 7 11 29.97 1015 3 4 0.00 0.00
3:45 pm 15:45 Cloudy with Light Rain 54 12.2 53 11.7 97 97 ENE 7 11 29.97 1015 3 5 0.00 0.03
3:50 pm 15:50 Cloudy with Light Rain 54 12 52 11 94 94 ENE 5 7 29.97 1015 3 5 0.00 0.00
3:52 pm 15:52 Cloudy with Light Rain 54 12.2 52 11.1 93 93 ENE 6 9 29.97 1015 3 5 0.00 0.03
3:55 pm 15:55 Cloudy with Light Rain 54 12.2 52 11.1 93 93 NE 7 11 29.97 1015 4 6 0.00 0.03
4:04 pm 16:04 Cloudy with Drizzle 55 13 54 12 94 94 ENE 8 13 29.97 1015 3 4 0.00 0.00
4:33 pm 16:33 Cloudy with Light Rain 53 11.7 51 10.6 93 93 ENE 13 20 29.97 1015 2 3 0.01 0.25
4:42 pm 16:42 Cloudy with Drizzle 54 12 52 11 94 94 ENE 15 24 29.97 1015 2 3 0.00 0.00
4:52 pm 16:52 Cloudy with Drizzle 52 11.1 50 10 93 93 ENE 15 24 29.96 1015 3 4 0.01 0.25
4:55 pm 16:55 Cloudy with Drizzle 52 11.1 50 10 93 93 ENE 15 24 29.97 1015 3 5 0.00 0.03
4:59 pm 16:59 Cloudy with Drizzle 52 11.1 51 10.6 97 97 ENE 14 22 29.97 1015 3 5 0.00 0.03
5:09 pm 17:09 Cloudy with Drizzle 52 11.1 50 10 93 93 NE 14 22 29.97 1015 3 4 0.00 0.03
5:25 pm 17:25 Cloudy with Drizzle 52 11.1 50 10 93 93 ENE 14 22 29.97 1015 3 5 0.00 0.03
5:35 pm 17:35 Cloudy with Drizzle 52 11.1 51 10.6 97 97 NE 15 24 29.97 1015 3 4 0.00 0.03
5:41 pm 17:41 Cloudy with Drizzle 51 10.6 50 10 96 96 ENE 16 26 29.97 1015 2 3 0.00 0.03
5:49 pm 17:49 Cloudy with Drizzle 52 11 50 10 94 94 ENE 14 22 29.97 1015 2 3 0.00 0.03
5:52 pm 17:52 Cloudy with Drizzle 51 10.6 49 9.4 92 92 ENE 12 19 29.98 1015 2 3 0.00 0.03
5:59 pm 17:59 Cloudy with Drizzle 51 10.6 49 9.4 92 92 ENE 15 24 29.97 1015 3 5 0.00 0.03
6:13 pm 18:13 Cloudy 51 10.6 49 9.4 92 92 ENE 12 19 29.97 1015 7 11 0.00 0.03
6:39 pm 18:39 Cloudy 50 10 48 8.9 93 93 E 12 19 29.97 1015 8 13 0.00 0.03
6:52 pm 18:52 Cloudy 50 10 48 8.9 93 93 E 8 13 29.99 1016 10 16 0.00 0.03
6:55 pm 18:55 Cloudy 50 10 48 8.9 93 93 E 8 13 30.00 1016 10 16 0.00 0.00
7:28 pm 19:28 Cloudy with Drizzle 50 10 47 8.3 89 89 NNE 15 24 30.00 1016 5 8 0.00 0.03
7:52 pm 19:52 Cloudy with Drizzle 50 10 47 8.3 89 89 ENE 13 20 30.01 1016 5 8 0.00 0.03
8:01 pm 20:01 Cloudy with Drizzle 50 10 47 8.3 89 89 ENE 12 19 30.03 1017 5 8 0.00 0.03
8:11 pm 20:11 Cloudy 50 10 47 8.3 89 89 ENE 12 19 30.00 1016 8 13 0.00 0.03
8:17 pm 20:17 Cloudy 50 10 47 8.3 89 89 ENE 12 19 30.03 1017 9 14 0.00 0.03
8:52 pm 20:52 Cloudy 50 10 47 8.3 89 89 ENE 9 15 30.03 1017 8 13 0.00 0.03
9:01 pm 21:01 Cloudy with Rain 49 9.4 47 8.3 93 93 NE 12 19 30.03 1017 3 5 0.00 0.03
9:04 pm 21:04 Cloudy with Heavy Rain 48 9 46 8 94 94 NNE 9 15 30.06 1018 3 4 0.00 0.00
9:11 pm 21:11 Cloudy with Light Rain 49 9.4 46 7.8 90 90 NE 10 17 30.03 1017 4 6 0.11 2.79
9:25 pm 21:25 Cloudy with Rain 49 9.4 47 8.3 93 93 ENE 18 30 30.00 1016 4 6 0.13 3.30
9:31 pm 21:31 Cloudy with Rain 48 8.9 46 7.8 93 93 ENE 16 26 30.00 1016 4 6 0.14 3.56
9:35 pm 21:35 Cloudy with Rain 48 8.9 46 7.8 93 93 ENE 15 24 30.00 1016 4 6 0.15 3.81
9:52 pm 21:52 Cloudy 48 8.9 46 7.8 93 93 ENE 9 15 30.02 1017 10 16 0.16 4.06
9:58 pm 21:58 Cloudy 48 9 46 8 94 94 NE 7 11 30.03 1017 10 16 0.00 0.00
10:52 pm 22:52 Cloudy 48 8.9 45 7.2 89 89 ENE 8 13 30.03 1017 10 16 0.00 0.00
11:52 pm 23:52 Cloudy 48 8.9 45 7.2 89 89 NE 10 17 30.02 1017 10 16 0.00 0.00

Powered by AerisWeather